Weather History for Burlington, NC

Change the Weather History Date:

Saturday, February 2, 2013

  Actual Average Record
Temperature  
Mean Temperature 30 °F -  
Max Temperature 42 °F 52 °F 74 °F (1989)
Min Temperature 19 °F 30 °F 12 °F (1971)
Degree Days  
Heating Degree Days 34    
Moisture  
Dew Point 15 °F    
Average Humidity 51    
Maximum Humidity 89    
Minimum Humidity 27    
Precipitation  
Precipitation 0.01 in - - ()
Sea Level Pressure  
Sea Level Pressure 30.22 in    
Wind  
Wind Speed 5 mph (SSW)    
Max Wind Speed 13 mph    
Max Gust Speed 26 mph    
Visibility 10 miles    
Events Rain    
Averages and records for this station are not official NWS values.
T = Trace of Precipitation, MM = Missing Value Source: NWS Daily Summary

Daily Weather History Graph

Daily Weather History Graph

Search for Another Location

Airport:

Trip Planner

Search our weather history database for the weather conditions in past years. The results will help you decide how hot, cold, wet, or windy it might be!

Date:

Astronomy

Feb. 02, 2013 Rise Set
Actual Time 7:17 AM EST 5:46 PM EST
Civil Twilight 6:50 AM EST 6:13 PM EST
Nautical Twilight 6:20 AM EST 6:43 PM EST
Astronomical Twilight 5:49 AM EST 7:13 PM EST
Moon No Moon Rise 10:41 AM EST (2/2)
Length of Visible Light 11h 22m
Length of Day
10h 28m
Waning Gibbous, 60% of the Moon is Illuminated
Feb 2
Waning Gibbous
Feb 3
Last Quarter
Feb 10
New
Feb 17
First Quarter
Feb 25
Full

Hourly Weather History & Observations

Time (EST) Temp. Windchill Dew Point Humidity Pressure Visibility Wind Dir Wind Speed Gust Speed Precip Events Conditions
12:54 AM 23.0 °F 13.9 °F 8.1 °F 53% 30.37 in 10.0 mi NNE 8.1 mph - N/A   Clear
1:54 AM 23.0 °F 18.4 °F 7.0 °F 50% 30.37 in 10.0 mi South 3.5 mph - N/A   Clear
2:54 AM 21.9 °F - 9.0 °F 58% 30.37 in 10.0 mi Calm Calm - N/A   Clear
3:54 AM 19.9 °F - 12.0 °F 71% 30.37 in 10.0 mi Calm Calm - N/A   Clear
4:54 AM 19.0 °F - 12.0 °F 74% 30.37 in 10.0 mi Calm Calm - N/A   Clear
5:54 AM 19.0 °F - 12.0 °F 74% 30.37 in 10.0 mi Calm Calm - N/A   Clear
7:54 AM 19.0 °F - 12.9 °F 77% 30.39 in 10.0 mi Calm Calm - N/A   Clear
8:54 AM 25.0 °F 19.3 °F 10.9 °F 55% 30.40 in 10.0 mi South 4.6 mph - N/A   Clear
9:54 AM 28.9 °F 23.9 °F 10.0 °F 45% 30.38 in 10.0 mi South 4.6 mph - N/A   Clear
10:54 AM 30.9 °F 26.2 °F 10.0 °F 42% 30.35 in 10.0 mi Variable 4.6 mph - N/A   Clear
11:54 AM 35.1 °F 27.9 °F 9.0 °F 34% 30.28 in 10.0 mi South 9.2 mph - N/A   Clear
12:54 PM 39.0 °F 34.0 °F 9.0 °F 29% 30.24 in 10.0 mi SSW 6.9 mph 16.1 mph N/A   Clear
1:54 PM 39.0 °F 32.3 °F 10.0 °F 30% 30.19 in 10.0 mi South 10.4 mph 17.3 mph N/A   Mostly Cloudy
2:54 PM 41.0 °F 35.8 °F 12.0 °F 31% 30.16 in 10.0 mi South 8.1 mph - N/A   Overcast
3:54 PM 42.1 °F 36.1 °F 10.0 °F 27% 30.14 in 10.0 mi SW 10.4 mph - N/A   Overcast
4:54 PM 41.0 °F 35.8 °F 10.9 °F 29% 30.12 in 10.0 mi South 8.1 mph - N/A   Overcast
5:54 PM 41.0 °F 37.1 °F 14.0 °F 33% 30.09 in 10.0 mi SSW 5.8 mph - N/A   Overcast
6:54 PM 41.0 °F - 18.0 °F 40% 30.08 in 10.0 mi Calm Calm - N/A   Overcast
7:54 PM 39.0 °F - 19.9 °F 46% 30.06 in 10.0 mi Calm Calm - N/A   Overcast
8:54 PM 39.9 °F - 18.0 °F 41% 30.05 in 10.0 mi Calm Calm - N/A   Overcast
9:54 PM 42.1 °F 35.7 °F 24.1 °F 49% 30.04 in 10.0 mi WSW 11.5 mph - N/A   Overcast
10:54 PM 41.0 °F 33.9 °F 30.9 °F 67% 30.06 in 10.0 mi WSW 12.7 mph 23.0 mph 0.00 in   Overcast
11:03 PM 39.2 °F 32.0 °F 33.8 °F 81% 30.04 in 10.0 mi SW 11.5 mph 26.5 mph 0.00 in Rain Light Rain
11:54 PM 37.9 °F 33.5 °F 35.1 °F 89% 30.03 in 10.0 mi WSW 5.8 mph - 0.01 in Rain Light Rain